Location: Munkebjergskolens Observatorium
(55.3864°N, 10.3987°E)
Time: 02:07:34
(UTC+01:00)

COSMOS 2251 DEB - Visible Passes

Search period start: 07 December 2023 00:00
Search period end: 17 December 2023 00:00
Orbit: 608 x 855 km, 74.0° (Epoch: 06 December)

Date Brightness Start Highest point End Pass type
(mag) Time Alt. Az. Time Alt. Az. Time Alt. Az.
07 Dec ? 04:52:15 11° N 04:53:01 11° N 04:54:37 10° NNE visible
07 Dec ? 06:32:36 10° NNW 06:36:39 20° NNE 06:40:46 10° E visible
08 Dec ? 04:05:15 10° N 04:05:15 10° N 04:05:36 10° NNE visible
08 Dec ? 05:44:49 10° NNW 05:48:00 15° NNE 05:51:14 10° ENE visible
08 Dec ? 07:25:45 10° NNW 07:30:58 37° NE 07:36:17 10° ESE visible
09 Dec ? 04:57:44 11° N 04:59:13 12° NNE 05:01:31 10° NE visible
09 Dec ? 06:37:57 10° NNW 06:42:36 26° NE 06:47:20 10° E visible
10 Dec ? 04:10:44 11° N 04:10:44 11° N 04:11:58 10° NNE visible
10 Dec ? 05:50:14 10° NNW 05:54:03 19° NNE 05:58:01 10° ENE visible
10 Dec ? 07:31:08 10° NNW 07:36:41 52° NE 07:42:17 10° SE visible
11 Dec ? 05:03:13 12° N 05:05:21 14° NNE 05:08:26 10° NE visible
11 Dec ? 06:43:18 10° NNW 06:48:26 34° NE 06:53:39 10° ESE visible
12 Dec ? 04:16:14 12° N 04:16:32 12° NNE 04:18:44 10° NE visible
12 Dec ? 05:55:44 11° NNW 06:00:02 24° NE 06:04:36 10° E visible
12 Dec ? 07:36:33 10° NNW 07:42:16 75° ENE 07:48:01 10° SSE visible
13 Dec ? 03:29:14 10° NNE 03:29:14 10° NNE 03:29:20 10° NNE visible
13 Dec ? 05:08:44 13° N 05:11:25 18° NNE 05:15:12 10° ENE visible
13 Dec ? 06:48:39 10° NNW 06:54:09 47° NE 06:59:42 10° SE visible
14 Dec ? 04:21:46 13° N 04:22:40 14° NNE 04:25:35 10° NE visible
14 Dec ? 06:01:16 12° NNW 06:05:52 31° NE 06:10:57 10° ESE visible
14 Dec ? 07:42:01 10° NNW 07:47:45 76° WSW 07:53:27 10° SSE visible
15 Dec ? 03:34:48 11° NNE 03:34:48 11° NNE 03:35:55 10° NNE visible
15 Dec ? 05:14:18 15° N 05:17:23 22° NE 05:21:48 10° E visible
15 Dec ? 06:54:02 10° NNW 06:59:46 67° ENE 07:05:28 10° SE visible
16 Dec ? 04:27:22 15° N 04:28:44 17° NNE 04:32:21 10° ENE visible
16 Dec ? 06:06:52 14° NNW 06:11:35 43° NE 06:17:02 10° ESE visible
16 Dec ? 07:47:32 10° NW 07:53:05 50° WSW 07:58:33 10° S visible
